Chetumal, Mexico

7:03 AM on August 21, 2017 (GMT +0000)
Chetumal International

Weather History for MMCM - December, 2013

Change the Weather History Date:

Monday, December 23, 2013

  Actual Average Record
Temperature  
Mean Temperature 80 °F -  
Max Temperature 89 °F 80 °F 89 °F (2013)
Min Temperature 70 °F 67 °F 59 °F (2012)
Cooling Degree Days 14    
Growing Degree Days 30 (Base 50)    
Moisture  
Dew Point 74 °F    
Average Humidity 74    
Maximum Humidity 90    
Minimum Humidity 53    
Precipitation  
Precipitation 0.00 in - - ()
Sea Level Pressure  
Sea Level Pressure 30.04 in    
Wind  
Wind Speed 5 mph ()    
Max Wind Speed 17 mph    
Max Gust Speed -    
Visibility 6.5 miles    
Events      
Averages and records for this station are not official NWS values.
T = Trace of Precipitation, MM = Missing Value Source: Averaged Metar Reports

Daily Weather History Graph

Daily Weather History Graph

Search for Another Location

Airport or City:

Trip Planner

Search our weather history database for the weather conditions in past years. The results will help you decide how hot, cold, wet, or windy it might be!

Date:

Astronomy

Dec. 23, 2013 Rise Set
Actual Time 6:21 AM CST 5:23 PM CST
Civil Twilight 5:58 AM CST 5:46 PM CST
Nautical Twilight 5:30 AM CST 6:14 PM CST
Astronomical Twilight 5:03 AM CST 6:41 PM CST
Moon 10:45 PM CST (12/23) 10:30 AM CST (12/23)
Length of Visible Light 11h 48m
Length of Day
11h 01m
Waning Gibbous, 68% of the Moon is Illuminated
Dec 23
Waning Gibbous
Dec 25
Last Quarter
Jan 1
New
Jan 7
First Quarter
Jan 15
Full

Hourly Weather History & Observations

Time (CST) Temp. Heat Index Dew Point Humidity Pressure Visibility Wind Dir Wind Speed Gust Speed Precip Events Conditions
2:40 AM 78 °F - 74 °F 86% 29.98 in 5 mi East 2.2 mph - -  
5:40 AM 78 °F - 75 °F 88% 30.00 in 5 mi East 4.5 mph - -  
6:40 AM 78.8 °F - 71.6 °F 78% 29.99 in 7.0 mi Calm Calm - N/A   Clear
7:45 AM 80.6 °F 84.6 °F 71.6 °F 74% 30.02 in 7.0 mi Calm Calm - N/A   Clear
8:40 AM 82.4 °F 89.5 °F 75.2 °F 79% 30.05 in 7.0 mi Calm Calm - N/A   Clear
8:50 AM 84 °F - 75 °F 67% 30.06 in 6 mi East 6.7 mph - -   Scattered Clouds
9:40 AM 84.2 °F 92.3 °F 75.2 °F 74% 30.05 in 7.0 mi East 9.2 mph - N/A   Scattered Clouds
10:40 AM 84.2 °F 92.3 °F 75.2 °F 74% 30.06 in 7.0 mi East 9.2 mph - N/A   Scattered Clouds
11:42 AM 84.2 °F 92.3 °F 75.2 °F 74% 30.05 in 7.0 mi East 11.5 mph - N/A   Scattered Clouds
11:50 AM 87 °F - 75 °F 60% 30.07 in 6 mi East 6.7 mph - -   Scattered Clouds
12:40 PM 84.2 °F 92.3 °F 75.2 °F 74% 30.02 in 7.0 mi ESE 17.3 mph - N/A   Scattered Clouds
1:40 PM 84.2 °F 92.3 °F 75.2 °F 74% 30.01 in 7.0 mi ESE 11.5 mph - N/A   Scattered Clouds
2:42 PM 84.2 °F 92.3 °F 75.2 °F 74% 30.00 in 7.0 mi ESE 11.5 mph - N/A   Scattered Clouds
2:50 PM 89 °F - 74 °F 53% 30.01 in 6 mi ESE 6.7 mph - -   Scattered Clouds
3:41 PM 84.2 °F 92.3 °F 75.2 °F 74% 29.97 in 7.0 mi ESE 11.5 mph - N/A   Scattered Clouds
4:45 PM 84.2 °F 92.3 °F 75.2 °F 74% 30.00 in 7.0 mi ESE 11.5 mph - N/A   Scattered Clouds
5:41 PM 84.2 °F 92.3 °F 75.2 °F 74% 30.02 in 7.0 mi ESE 6.9 mph - N/A   Scattered Clouds
5:50 PM 85 °F - 76 °F 67% 30.04 in 5 mi ENE 4.5 mph - -   Partly Cloudy
6:41 PM 84.2 °F 92.3 °F 75.2 °F 74% 30.04 in 7.0 mi Calm Calm - N/A   Scattered Clouds
7:42 PM 80.6 °F 83.9 °F 69.8 °F 70% 30.05 in 7.0 mi ENE 6.9 mph - N/A   Scattered Clouds
8:41 PM 80.6 °F 83.9 °F 69.8 °F 70% 30.08 in 7.0 mi NE 6.9 mph - N/A   Scattered Clouds
8:45 PM 80 °F - 75 °F 81% 30.09 in 5 mi ENE 2.2 mph - -   Scattered Clouds
9:40 PM 80.6 °F 83.9 °F 69.8 °F 70% 30.09 in 7.0 mi Calm Calm - N/A   Scattered Clouds
11:45 PM 77 °F - 74 °F 90% 30.10 in 5 mi North 2.2 mph - -   Scattered Clouds